Weather in Verkhnyaya Staritsa

Russia / Perm Krai     60°13′58″N   54°39′55″E
temp.,
°C
wind,
m/s
gust,
m/s
humid.,
%
clouds,
%
prec.,
mm/h
press.,
hPa
HPBL,
m
28 february, sun
sun2823:00−19ese3109262 0.0 1012300
02:00−22e38940 0.0 1013182
05:00−24e23940 0.0 101468
08:00−25ene23940 0.0 101471
11:00−21ene25900 0.0 1014234
14:00−16ene25880 0.0 1013351
17:00−14ne259014 0.0 1014429
20:00−18nne129729 0.0 101520
1 march, mon
mon123:00−20nne129915 0.0 101720
02:00−21ne12980 0.0 101820
05:00−23ene11940 0.0 101920
08:00−24wnw01940 0.0 101920
11:00−18ssw13880 0.0 1019179
14:00−13sw248821 0.0 1017421
17:00−11ssw368953 0.0 1016494
20:00−14s4109499 0.0 1013351
2 march, tue
tue223:00−14ssw4109199 0.0 1011420
02:00−14s51191100 0.0 1008417
05:00−14s51194100 0.4 1005480
08:00−13s51194100 0.6 1002560
11:00−11s4993100 1.5 1000597
14:00−10s4892100 0.7 999596
17:00−10s4893100 1.1 999518
20:00−11s3895100 0.6 999398
3 march, wed
wed323:00−12s3795100 1.1 1000276
02:00−13s2596100 0.3 999178
05:00−13s2497100 0.4 1000119
08:00−13s1297100 0.1 99936
11:00−10ssw119398 0.2 1000195
14:00−6nw1290100 0.1 1000400
17:00−5nw2595100 0.6 1001411
20:00−8nw3993100 0.5 1001499
4 march, thu
thu423:00−13nw269690 0.5 1002118
02:00−14wnw259860 0.0 100288
05:00−11wnw399669 0.1 1003273
08:00−13wnw379694 0.1 1004230
11:00−12wnw259596 0.1 1004250
14:00−8w259091 0.0 1004477
17:00−7sw358895 0.1 1003661
20:00−9s31093100 0.0 1001448